Location: Bleiche
(52.2562°N, 11.5470°E)
Time: 07:43:51
(UTC+00:00)

Daily predictions for brighter satellites

Satellite Brightness Start Highest point End
(mag) Time Altitude Azimuth Time Altitude Azimuth Time Altitude Azimuth
NOSS 3-4 (A) 3.5 16:06:05 10° SW 16:12:02 83° NW 16:18:31 10° NE
NOSS 3-4 (C) 3.5 16:06:14 10° SW 16:12:11 84° NW 16:18:41 10° NE
Cosmos 2219 4.3 16:06:51 10° WSW 16:12:16 42° NW 16:17:42 10° NNE
Cosmos 2034 Rocket 4.5 16:07:30 10° NNW 16:13:48 69° W 16:19:57 10° S
Cosmos 2279 Rocket 4.3 16:10:37 10° N 16:16:38 45° ENE 16:22:36 10° SE
Cosmos 1674 2.7 16:14:01 10° S 16:17:51 89° WNW 16:21:44 10° N
Cosmos 1315 Rocket 3.0 16:14:38 10° N 16:18:30 48° ENE 16:22:23 10° SSE
Cosmos 1707 4.4 16:17:25 10° SW 16:20:55 33° WNW 16:24:26 10° N
Cosmos 1503 Rocket 4.3 16:17:20 10° S 16:22:32 54° ESE 16:27:48 10° NNE
CZ-4 R/B 2.8 16:20:43 10° ESE 16:23:29 18° ENE 16:26:14 10° NNE
COSMO-SKYMED 1 4.0 16:20:47 10° NE 16:23:54 19° E 16:27:00 10° SE
Cosmos 1536 Rocket 3.6 16:19:57 10° S 16:24:19 81° E 16:28:47 10° NNE
TIMED 4.5 16:21:15 10° NNW 16:25:39 84° ENE 16:30:01 10° SSE
Cosmos 2227 Rocket 3.3 16:21:07 10° WSW 16:26:27 40° NW 16:31:49 10° NNE
ATLAS 2AS CENTAUR R/B 3.1 16:21:40 10° SW 16:29:39 86° NW 16:37:27 10° NE
Cosmos 1634 Rocket 4.0 16:24:11 10° N 16:30:27 80° E 16:36:44 10° SSE
Cosmos 1844 Rocket 4.2 16:31:21 10° SE 16:34:39 16° E 16:37:42 11° ENE
Cosmos 1025 Rocket 3.8 16:31:07 10° SSW 16:35:22 55° WNW 16:39:42 10° N
CZ-2C R/B 3.6 16:31:13 10° SE 16:36:09 39° ENE 16:41:22 10° N
Cosmos 2344 4.3 16:29:47 10° NW 16:37:45 48° NNE 16:48:14 10° E
H-2A R/B 2.8 16:34:00 10° S 16:38:02 69° WSW 16:42:14 10° NNW
Okean-O 3.7 16:34:32 10° ESE 16:38:05 24° ENE 16:41:40 10° N
CZ-4B R/B 2.7 16:35:36 10° NE 16:38:20 22° E 16:41:00 10° SSE
H-2A R/B 2.9 16:35:04 10° ESE 16:39:10 26° ENE 16:43:22 10° N
Cosmos 773 Rocket 3.9 16:35:15 10° NNW 16:40:28 82° ENE 16:45:36 10° SSE
SeaSat 1 3.5 16:35:52 10° NNE 16:40:31 43° NW 16:45:10 10° WSW
Okean O Rocket 1.6 16:36:25 10° SSE 16:40:52 87° ENE 16:45:20 10° NNW
YAOGAN 6 4.4 16:39:30 10° SSW 16:42:49 36° W 16:46:11 10° NNW
SMAP 3.4 16:38:16 10° S 16:42:55 71° WSW 16:47:35 10° NNW
Cosmos 1626 2.1 16:40:01 10° S 16:43:43 87° E 16:47:26 10° NNE
CZ-4B R/B 3.5 16:39:25 10° SSE 16:44:59 79° WSW 16:50:40 10° NNW
SL-24 R/B 4.4 16:41:07 10° S 16:45:28 78° WSW 16:50:13 10° NNW
Aureole 2 Rocket 4.3 16:47:13 10° ESE 16:48:02 11° ESE 16:48:02 11° ESE
Meteor 2-10 Rocket 3.8 16:44:40 10° N 16:50:07 51° ENE 16:55:20 10° SSE
Cosmos 2297 Rocket 3.8 16:46:22 10° W 16:51:09 27° NW 16:55:57 10° NNE
Cosmos 1606 Rocket 3.5 16:51:01 10° N 16:55:26 86° E 16:59:51 10° S
OPS 8737 4.5 16:52:27 10° NW 16:55:28 79° SW 16:59:18 10° SE
H-2A R/B 2.1 16:52:26 10° NNE 16:56:57 83° ESE 17:01:21 10° SSW
CZ-2D R/B 3.4 16:53:51 10° SE 16:57:36 50° ENE 17:01:20 10° N
USA 234 3.5 16:52:59 13° E 16:58:45 60° N 17:05:11 10° WNW
CSL-04 Rocket 4.5 16:55:28 10° ESE 17:00:05 29° ENE 17:04:46 10° N
YAOGAN 1 3.2 16:56:25 10° SE 17:00:18 33° ENE 17:04:12 10° N
Cosmos 1892 Rocket 3.9 16:56:41 10° SSE 17:00:46 43° E 17:04:53 10° NNE
CZ-4C R/B 3.7 16:57:49 10° N 17:00:53 48° WNW 17:03:56 10° SSW
ATLAS 5 CENTAUR R/B 1.5 16:58:23 10° SW 17:02:27 78° SE 17:06:05 16° NE
Meteor 2-1 Rocket 4.5 16:57:50 10° N 17:03:12 43° ENE 17:08:27 10° SE
Helios 1A Rocket 3.7 17:02:30 10° SE 17:06:08 31° ENE 17:09:49 10° N
SL-14 R/B 3.5 17:02:21 10° SSW 17:06:13 71° WNW 17:10:10 10° N
MOS 1 Rocket 3.7 17:02:19 10° NNE 17:06:18 34° E 17:10:12 10° SSE
ATLAS 3B R/B 4.5 17:01:13 10° NW 17:07:24 36° WSW 17:13:48 10° S
Cosmos 2228 3.4 17:03:10 10° NNW 17:07:24 66° W 17:11:39 10° S
RESURS DK-1 2.9 17:03:52 10° SW 17:07:57 57° NW 17:11:53 11° NNE
NOSS 7 (E) 4.2 17:07:11 10° SW 17:10:44 87° ESE 17:12:25 25° NE
SKYMED 2 3.7 17:08:03 10° NNE 17:12:18 50° E 17:16:31 10° S
Cosmos 1538 Rocket 3.9 17:08:56 10° NNW 17:14:10 89° ENE 17:19:20 10° SSE
Aureole 3 3.5 17:10:52 10° N 17:14:23 36° ENE 17:17:23 10° SE
Meteor 2-5 Rocket 3.9 17:09:41 10° SSW 17:15:15 75° WNW 17:20:49 10° N
CZ-4C R/B 2.9 17:10:50 10° WSW 17:16:02 52° NNW 17:21:18 15° NE
CZ-3B R/B 1.3 17:14:24 10° WNW 17:16:36 88° NNE 17:20:09 16° ESE
SJ 16-02 2.3 17:14:25 10° SSE 17:18:06 27° E 17:18:57 25° E
Nadezhda 4 Rocket 4.2 17:13:37 10° SSE 17:19:33 47° E 17:25:27 10° NNE
Cosmos 1777 Rocket 4.0 17:16:09 10° S 17:21:21 64° ESE 17:26:00 13° NNE
Cosmos 2263 Rocket 2.5 17:17:41 10° SW 17:23:21 69° WNW 17:28:56 11° NNE
Cosmos 1455 2.3 17:21:14 10° N 17:24:57 51° ENE 17:28:41 10° SSE
Cosmos 2058 Rocket 3.1 17:22:21 10° N 17:26:53 89° E 17:31:24 10° S
COSMOS 2406 4.0 17:25:45 10° NNW 17:30:56 32° NE 17:32:43 27° ENE
X-37B 3.2 17:32:27 10° S 17:33:15 11° SSE 17:33:15 11° SSE
Meteor 2-13 Rocket 4.4 17:32:00 10° S 17:37:58 60° E 17:44:02 10° NNE
ARGOS 3.2 17:33:27 10° SE 17:38:39 54° ENE 17:43:53 10° N
Lacrosse 5 2.2 17:36:08 10° WNW 17:41:09 65° SW 17:45:00 17° SE
NOSS 3-1 (C) 4.0 17:34:11 10° NW 17:41:13 66° NE 17:47:11 20° ESE
CREW DRAGON DEMO-1 DEB 3.2 17:38:41 10° W 17:41:31 50° SSW 17:41:52 46° S
Okean 1-7 Rocket 3.5 17:37:45 10° S 17:42:17 74° E 17:46:52 10° NNE
ERS-2 2.0 17:42:03 42° NE 17:43:01 61° ESE 17:46:37 10° S
CZ-2C R/B 3.7 17:45:49 26° ESE 17:45:49 26° ESE 17:49:21 10° SSE
PSLV R/B 4.0 17:43:31 30° NE 17:45:21 56° ESE 17:49:30 10° S
ISS -1.9 17:43:01 10° SSW 17:45:00 19° SSE 17:45:00 19° SSE
CSL-04 Debris 4.1 17:43:24 10° SSE 17:48:43 65° ENE 17:54:04 10° NNW
Meteor 1-24 Rocket 4.4 17:44:16 10° SSW 17:49:27 51° WNW 17:54:39 10° N
COSMOS 2455 2.8 17:44:43 10° SSW 17:50:42 74° SE 17:54:03 28° NE
Cosmos 1626 Rocket 3.6 17:49:15 10° S 17:53:31 52° E 17:54:01 49° ENE
Cosmos 1833 Rocket 3.2 17:48:55 10° NNW 17:54:07 37° NE 17:54:41 36° ENE
Cosmos 1844 3.9 17:50:17 10° S 17:55:41 48° ESE 17:57:10 39° ENE
Cosmos 2082 Rocket 3.2 17:51:06 10° NNW 17:55:56 27° NE 17:55:56 27° NE
Cosmos 2026 Rocket 4.2 17:50:57 10° SSE 17:56:39 43° E 18:02:28 10° NNE
USA 281 4.1 17:56:41 27° NE 17:57:20 28° NE 18:02:42 10° NNW
CZ-4 R/B 1.8 17:54:03 10° S 17:58:08 64° WSW 18:02:09 10° NNW
USA 229 DEB 3.9 17:51:07 10° NW 17:58:14 63° NE 18:01:49 33° ESE
USA 229 3.9 17:51:14 10° NW 17:58:19 63° NE 18:01:52 33° ESE
COSMO-SKYMED 1 3.1 17:56:09 10° N 18:00:27 60° WNW 18:04:44 10° SSW
DMSP B5D1-3 4.5 18:01:30 34° NE 18:03:33 59° ESE 18:08:34 10° S
USA 267 4.3 18:04:12 26° SE 18:04:12 26° SE 18:09:28 10° S
SL-08 RB Rocket 3.6 18:05:15 60° E 18:05:29 61° ENE 18:09:57 10° N
Ariane Rocket 4.2 18:10:03 27° NNE 18:10:03 27° NNE 18:12:48 10° N
CZ-4B R/B 3.2 18:08:14 15° N 18:10:36 31° WNW 18:13:36 10° SW
Cosmos 2227 Rocket 4.5 18:08:51 10° WNW 18:12:10 15° NNW 18:15:28 10° NNE
NOSS 3-1 (A) 3.9 18:06:42 10° NW 18:13:47 67° NE 18:16:57 39° ESE
Okean-O 3.4 18:09:58 10° S 18:14:18 52° W 18:18:39 10° NNW
Cosmos 923 Rocket 4.4 18:10:30 10° NNW 18:15:49 65° WSW 18:21:05 10° S
CZ-2C R/B 4.4 18:10:59 10° SSW 18:16:00 41° W 18:21:19 10° NNW
Cosmos 1844 Rocket 2.5 18:11:59 10° SSW 18:17:40 81° ESE 18:19:25 46° NE
H-2A R/B 2.5 18:13:21 10° S 18:18:16 59° W 18:23:22 10° NNW
Meteor 1-21 Rocket 4.1 18:14:38 10° SSW 18:20:10 89° W 18:25:18 13° NNE
Aureole 2 Rocket 4.0 18:17:53 10° SW 18:19:28 27° SW 18:19:28 27° SW
Meteor 2-8 Rocket 4.3 18:15:16 10° N 18:21:23 87° ENE 18:27:30 10° S
ATLAS 2AS CENTAUR R/B 3.8 18:14:06 10° W 18:21:34 42° NNW 18:25:30 25° NNE
Meteor 2-15 4.3 18:15:55 10° N 18:22:04 66° ENE 18:24:42 35° SSE
Cosmos 2195 Rocket 4.4 18:15:55 10° S 18:22:12 74° E 18:28:34 10° NNE
Cosmos 1680 Rocket 3.6 18:17:59 10° NNW 18:23:15 72° WSW 18:26:36 22° SSE
Cosmos 1627 Rocket 4.3 18:25:54 10° S 18:32:04 78° E 18:38:21 10° NNE
Cosmos 2098 Rocket 4.2 18:26:24 10° S 18:33:29 67° E 18:40:51 10° NNE
Cosmos 1818 3.4 18:29:12 10° SW 18:34:39 86° SE 18:34:52 82° ENE
YAOGAN 1 4.2 18:32:28 10° SSW 18:36:23 33° W 18:40:21 10° NNW
Cosmos 1428 Rocket 4.3 18:30:48 10° S 18:37:05 79° E 18:43:25 10° NNE
CSL-04 Rocket 4.2 18:34:48 10° S 18:40:07 58° WSW 18:45:33 10° NNW
USA 234 3.1 18:40:20 62° ESE 18:41:34 85° NNE 18:48:10 10° WNW
Iridium 4 Rocket 4.0 18:39:27 10° N 18:45:11 65° W 18:50:29 10° SSW
Cosmos 1092 Rocket 4.1 18:41:04 10° SSW 18:47:15 72° WNW 18:53:26 10° N
ATLAS 5 CENTAUR R/B 3.0 18:43:40 10° W 18:47:34 31° NNW 18:47:37 31° NNW
Cosmos 1812 Rocket 4.4 18:44:10 10° NNW 18:48:26 48° W 18:48:54 45° WSW
Meteor 2-15 Rocket 4.3 18:45:04 10° N 18:51:11 83° ENE 18:51:11 83° ENE
Cosmos 2344 4.2 18:44:18 10° NW 18:53:19 84° SW 18:59:35 34° SE
SJ 16-02 2.5 18:52:17 10° SW 18:55:59 41° W 18:55:59 41° W
CZ-4C R/B 3.7 19:00:43 10° WNW 19:05:56 31° N 19:06:30 31° N
Cosmos 2263 Rocket 4.2 19:04:06 10° W 19:08:21 21° NNW 19:10:38 17° N
COSMOS 2406 3.7 19:09:57 10° NW 19:14:49 58° WNW 19:14:49 58° WNW
Lacrosse 5 4.2 19:20:07 10° W 19:23:20 17° SW 19:24:15 16° SW
CZ-2C R/B 4.0 19:27:19 34° SW 19:27:19 34° SW 19:30:35 10° SW
COSMOS 2455 4.1 19:31:41 10° W 19:37:11 35° NNW 19:37:13 35° NNW
Cosmos 1833 Rocket 4.0 19:32:49 10° NW 19:36:24 37° WNW 19:36:24 37° WNW
Cosmos 2082 Rocket 3.7 19:34:58 10° NNW 19:37:47 30° NNW 19:37:47 30° NNW
USA 281 4.0 19:43:33 43° NNW 19:43:33 43° NNW 19:47:44 10° NNW
ATLAS 2AS CENTAUR R/B 4.1 20:07:19 10° WNW 20:12:56 33° NNW 20:12:56 33° NNW
